| time (UTC) | temp F | wind direction | speed MPH | gust MPH | rain 1hr in | rain 24hr in | rain mn in | humidity % | barometer mb |
| 20260510084521 | 55 | 23 | 0.0 | 0.0 | 0.00 | 0.00 | 0.00 | 3 | 1013.2 |
| 20260510083016 | 55 | 27 | 0.0 | 0.0 | 0.00 | 0.00 | 0.00 | 3 | 1013.4 |
| 20260510081558 | 55 | 34 | 0.0 | 0.0 | 0.00 | 0.00 | 0.00 | 3 | 1013.4 |
| 20260510080049 | 55 | 83 | 0.0 | 0.0 | 0.00 | 0.00 | 0.00 | 3 | 1013.4 |
| 20260510074527 | 55 | 208 | 0.0 | 0.0 | 0.00 | 0.00 | 0.00 | 3 | 1013.3 |
| 20260510073023 | 55 | 177 | 0.0 | 0.0 | 0.00 | 0.00 | 0.00 | 3 | 1013.4 |
| 20260510071501 | 55 | 188 | 0.0 | 0.0 | 0.00 | 0.00 | 0.00 | 3 | 1013.3 |
| 20260510070058 | 55 | 172 | 0.0 | 0.0 | 0.00 | 0.00 | 0.00 | 3 | 1013.1 |
| 20260510064536 | 56 | 172 | 0.0 | 0.0 | 0.00 | 0.00 | 0.00 | 3 | 1013.1 |
| 20260510063033 | 56 | 172 | 0.0 | 0.0 | 0.00 | 0.00 | 0.00 | 3 | 1013.0 |
| 20260510061521 | 57 | 172 | 0.0 | 0.0 | 0.00 | 0.00 | 0.00 | 3 | 1013.1 |
| 20260510060007 | 58 | 168 | 0.0 | 0.0 | 0.00 | 0.00 | 0.00 | 3 | 1013.1 |
| 20260510054617 | 58 | 198 | 0.0 | 0.0 | 0.00 | 0.00 | 0.00 | 3 | 1013.1 |
| 20260510053041 | 59 | 200 | 0.0 | 0.0 | 0.00 | 0.00 | 0.00 | 3 | 1013.1 |
| 20260510051536 | 59 | 222 | 0.0 | 0.0 | 0.00 | 0.00 | 0.00 | 3 | 1012.9 |
| 20260510050014 | 60 | 217 | 0.0 | 0.0 | 0.00 | 0.00 | 0.00 | 3 | 1012.9 |
| 20260510044511 | 60 | 179 | 0.0 | 0.0 | 0.00 | 0.00 | 0.00 | 3 | 1012.7 |
| 20260510043048 | 60 | 211 | 0.0 | 0.0 | 0.00 | 0.00 | 0.00 | 3 | 1012.5 |
| 20260510041600 | 61 | 208 | 0.0 | 0.0 | 0.00 | 0.00 | 0.00 | 3 | 1012.4 |
| 20260510040023 | 61 | 204 | 0.0 | 0.0 | 0.00 | 0.00 | 0.00 | 3 | 1012.3 |
| 20260510034517 | 61 | 200 | 0.0 | 0.0 | 0.00 | 0.00 | 0.00 | 3 | 1012.0 |
| 20260510033115 | 61 | 211 | 0.0 | 0.0 | 0.00 | 0.00 | 0.00 | 7 | 1011.9 |
| 20260510031555 | 62 | 253 | 0.0 | 0.0 | 0.00 | 0.00 | 0.00 | 25 | 1011.8 |
| 20260510030035 | 62 | 204 | 0.0 | 1.0 | 0.00 | 0.00 | 0.00 | 39 | 1011.7 |
| 20260510024526 | 63 | 208 | 0.0 | 1.0 | 0.00 | 0.00 | 0.00 | 52 | 1011.6 |
| 20260510023005 | 64 | 155 | 0.0 | 5.0 | 0.00 | 0.00 | 0.00 | 58 | 1011.5 |
| 20260510021600 | 65 | 200 | 0.0 | 7.0 | 0.00 | 0.00 | 0.00 | 60 | 1011.5 |
| 20260510020039 | 66 | 208 | 0.0 | 2.0 | 0.00 | 0.00 | 0.00 | 61 | 1011.5 |
| 20260510014534 | 67 | 214 | 0.0 | 6.0 | 0.00 | 0.00 | 0.00 | 62 | 1011.5 |
| 20260510013013 | 67 | 217 | 0.0 | 4.0 | 0.00 | 0.00 | 0.00 | 62 | 1011.4 |
| 20260510011508 | 67 | 214 | 0.0 | 5.0 | 0.00 | 0.00 | 0.00 | 63 | 1011.5 |
| 20260510010052 | 68 | 146 | 0.0 | 8.0 | 0.00 | 0.00 | 0.00 | 63 | 1011.4 |
| 20260510004550 | 69 | 314 | 0.0 | 8.0 | 0.00 | 0.00 | 0.00 | 63 | 1011.6 |
| 20260510003043 | 70 | 301 | 0.0 | 4.0 | 0.00 | 0.00 | 0.00 | 62 | 1011.7 |
| 20260510001539 | 70 | 158 | 1.0 | 8.0 | 0.00 | 0.00 | 0.00 | 62 | 1011.9 |
| 20260510000034 | 70 | 169 | 1.0 | 11.0 | 0.00 | 0.00 | 0.00 | 63 | 1011.9 |
| 20260509234533 | 70 | 181 | 0.0 | 9.0 | 0.00 | 0.00 | 0.00 | 62 | 1012.2 |
| 20260509233024 | 71 | 244 | 2.0 | 11.0 | 0.00 | 0.00 | 0.00 | 61 | 1012.3 |
| 20260509231521 | 72 | 231 | 0.0 | 10.0 | 0.00 | 0.00 | 0.00 | 59 | 1012.3 |
| 20260509230059 | 73 | 254 | 0.0 | 8.0 | 0.00 | 0.00 | 0.00 | 60 | 1012.4 |
| 20260509224554 | 74 | 200 | 0.0 | 10.0 | 0.00 | 0.00 | 0.00 | 59 | 1012.6 |
| 20260509223044 | 74 | 145 | 1.0 | 12.0 | 0.00 | 0.00 | 0.00 | 59 | 1012.7 |
| 20260509221536 | 74 | 201 | 1.0 | 10.0 | 0.00 | 0.00 | 0.00 | 58 | 1012.8 |
| 20260509220028 | 75 | 167 | 0.0 | 8.0 | 0.00 | 0.00 | 0.00 | 58 | 1013.0 |
| 20260509214524 | 75 | 204 | 1.0 | 16.0 | 0.00 | 0.00 | 0.00 | 57 | 1013.1 |
| 20260509213019 | 75 | 204 | 0.0 | 8.0 | 0.00 | 0.00 | 0.00 | 57 | 1013.3 |
| 20260509211517 | 75 | 208 | 0.0 | 5.0 | 0.00 | 0.00 | 0.00 | 57 | 1013.4 |
| 20260509210011 | 75 | 232 | 0.0 | 7.0 | 0.00 | 0.00 | 0.00 | 58 | 1013.5 |
| 20260509204506 | 76 | 198 | 0.0 | 2.0 | 0.00 | 0.00 | 0.00 | 58 | 1013.6 |
| 20260509203045 | 76 | 297 | 0.0 | 5.0 | 0.00 | 0.00 | 0.00 | 58 | 1013.6 |
| 20260509201541 | 77 | 166 | 0.0 | 4.0 | 0.00 | 0.00 | 0.00 | 57 | 1013.7 |
| 20260509200019 | 78 | 168 | 0.0 | 2.0 | 0.00 | 0.00 | 0.00 | 58 | 1013.8 |
| 20260509194513 | 78 | 231 | 0.0 | 1.0 | 0.00 | 0.00 | 0.00 | 55 | 1013.9 |
| 20260509193051 | 78 | 253 | 0.0 | 0.0 | 0.00 | 0.00 | 0.00 | 51 | 1013.9 |
| 20260509191548 | 78 | 225 | 0.0 | 0.0 | 0.00 | 0.00 | 0.00 | 52 | 1014.1 |
| 20260509190026 | 77 | 282 | 0.0 | 0.0 | 0.00 | 0.00 | 0.00 | 51 | 1014.2 |
| 20260509184532 | 77 | 276 | 0.0 | 0.0 | 0.00 | 0.00 | 0.00 | 52 | 1014.3 |
| 20260509183100 | 76 | 290 | 0.0 | 0.0 | 0.00 | 0.00 | 0.00 | 52 | 1014.4 |
| 20260509181556 | 75 | 277 | 0.0 | 0.0 | 0.00 | 0.00 | 0.00 | 53 | 1014.5 |
| 20260509180035 | 75 | 159 | 0.0 | 0.0 | 0.00 | 0.00 | 0.00 | 54 | 1014.5 |
| 20260509174531 | 73 | 233 | 0.0 | 0.0 | 0.00 | 0.00 | 0.00 | 55 | 1014.6 |
| 20260509173024 | 70 | 219 | 0.0 | 0.0 | 0.00 | 0.00 | 0.00 | 57 | 1014.6 |
| 20260509171508 | 69 | 221 | 0.0 | 0.0 | 0.00 | 0.00 | 0.00 | 58 | 1014.7 |
| 20260509170052 | 68 | 270 | 0.0 | 0.0 | 0.00 | 0.00 | 0.00 | 58 | 1014.7 |
| 20260509164536 | 67 | 253 | 0.0 | 0.0 | 0.00 | 0.00 | 0.00 | 55 | 1014.8 |
| 20260509163022 | 66 | 216 | 0.0 | 0.0 | 0.00 | 0.00 | 0.00 | 55 | 1014.9 |
| 20260509161511 | 65 | 221 | 0.0 | 0.0 | 0.00 | 0.00 | 0.00 | 45 | 1015.0 |
| 20260509160051 | 64 | 215 | 0.0 | 0.0 | 0.00 | 0.00 | 0.00 | 27 | 1015.1 |
| 20260509154545 | 63 | 127 | 0.0 | 0.0 | 0.00 | 0.00 | 0.00 | 18 | 1015.2 |
| 20260509153031 | 64 | 177 | 0.0 | 0.0 | 0.00 | 0.00 | 0.00 | 3 | 1015.1 |
| 20260509151519 | 64 | 221 | 0.0 | 0.0 | 0.00 | 0.00 | 0.00 | 3 | 1015.1 |
| 20260509150057 | 60 | 163 | 0.0 | 0.0 | 0.00 | 0.00 | 0.00 | 3 | 1014.9 |
| 20260509144552 | 56 | 143 | 0.0 | 0.0 | 0.00 | 0.00 | 0.00 | 3 | 1015.0 |
| 20260509143039 | 55 | 172 | 0.0 | 0.0 | 0.00 | 0.00 | 0.00 | 3 | 1015.0 |
| 20260509141532 | 54 | 176 | 0.0 | 1.0 | 0.00 | 0.00 | 0.00 | 3 | 1014.8 |
| 20260509140027 | 52 | 155 | 0.0 | 0.0 | 0.00 | 0.00 | 0.00 | 3 | 1014.7 |
| 20260509134523 | 0 | 0.0 | 0.0 | 0.00 | 0.00 | 0.00 | 1014.5 | ||
| 20260509133018 | 0 | 0.0 | 0.0 | 0.00 | 0.00 | 0.00 | 1014.4 | ||
| 20260509131514 | 0 | 0.0 | 0.0 | 0.00 | 0.00 | 0.00 | 1014.4 | ||
| 20260509130032 | 0 | 0.0 | 0.0 | 0.00 | 0.00 | 0.00 | 1014.4 | ||
| 20260509124524 | 0 | 0.0 | 0.0 | 0.00 | 0.00 | 0.00 | 1014.3 | ||
| 20260509123126 | 0 | 0.0 | 0.0 | 0.00 | 0.00 | 0.00 | 1014.3 | ||
| 20260509121541 | 0 | 0.0 | 0.0 | 0.00 | 0.00 | 0.00 | 1014.3 | ||
| 20260509120046 | 0 | 0.0 | 0.0 | 0.00 | 0.00 | 0.00 | 1014.3 | ||
| 20260509114518 | 0 | 0.0 | 0.0 | 0.00 | 0.00 | 0.00 | 1014.5 | ||
| 20260509113010 | 0 | 0.0 | 0.0 | 0.00 | 0.00 | 0.00 | 1014.5 | ||
| 20260509111548 | 50 | 167 | 0.0 | 0.0 | 0.00 | 0.00 | 0.00 | 3 | 1014.4 |
| 20260509110053 | 51 | 167 | 0.0 | 0.0 | 0.00 | 0.00 | 0.00 | 3 | 1014.4 |
| 20260509104522 | 51 | 167 | 0.0 | 0.0 | 0.00 | 0.00 | 0.00 | 3 | 1014.4 |
| 20260509103017 | 52 | 167 | 0.0 | 0.0 | 0.00 | 0.00 | 0.00 | 3 | 1014.4 |
| 20260509101602 | 52 | 167 | 0.0 | 0.0 | 0.00 | 0.00 | 0.00 | 3 | 1014.4 |
| 20260509100051 | 52 | 167 | 0.0 | 0.0 | 0.00 | 0.00 | 0.00 | 3 | 1014.4 |
| 20260509094533 | 52 | 167 | 0.0 | 0.0 | 0.00 | 0.00 | 0.00 | 3 | 1014.4 |
| 20260509093026 | 52 | 167 | 0.0 | 0.0 | 0.00 | 0.00 | 0.00 | 3 | 1014.4 |
| 20260509091503 | 52 | 167 | 0.0 | 0.0 | 0.00 | 0.00 | 0.00 | 3 | 1014.5 |
| 20260509090103 | 52 | 167 | 0.0 | 0.0 | 0.00 | 0.00 | 0.00 | 3 | 1014.5 |